OPS 4682 DEB, 51766

Orbit data source: Space-Track

OPS 4682 DEB, 51766 is space debris in LEO originally from a launch on Sat, 03 Apr 1965 UTC launched from the Air Force Western Test Range (AFWTR). Debris objects in space refer to the collection of defunct objects orbiting the Earth. Examples of debris include non-operational satellites, rocket bodies, and fragments generated from explosions, collisions, or faulty payload assembly.

Loading next visibility...
Identifier
51766, 1965-027GX
Orbit
LEO
Country
Flag of USUS
Related business
Manufacturer
Unknown
Mission
Spacecraft
Bus & Motor
Unknown
Mass
Unknown
Launch date (UTC)
1965-04-03 (61 years ago)
Launch vehicle
Unknown
Launch site
Air Force Western Test Range (AFWTR)
Object type
Payload
Rocket body
Debris
Shape & HBR
Unknown shape, 1.1 m
Radar Cross Section
Medium (>0.1 m² and <1 m²)

Expand to show TLE details & history
Last TLE update: 1 day ago

TLE from 1 day ago
0 OPS 4682 DEB
1 51766U 65027GX  26220.84032890  .00000048  00000-0  14578-3 0  9991
2 51766  90.2501   9.0380 0033204 137.6636 222.7054 12.93289354549048
Epoch: 2026-08-08T20:10Z
TLE epoch observation values (Epoch: 2026-08-08T20:10:04.416Z)
Latitude
-0.00001°
Longitude
109.1737°
Altitude
1,310.116 km
Speed
7.193 km/s
True Right ascension
00h 36m 09s
True Declination
0° 00' 00"
Sunlit
Object was in full shadow at epoch
Visualization orbit readout
Latitude
Unknown
Longitude
Unknown
Altitude
Unknown
Speed
Unknown
Apparent Right ascension
Unknown
Apparent Declination
Unknown
Sunlit
N/A
Visualization observer readout
Local Sidereal Time
16:29:04
Azimuth
Unknown
Elevation
Unknown
Doppler factor
Unknown
Orbital elements
Apogee altitude
1,311.077 km
Perigee altitude
1,260.183 km
Semi-major axis
7,663.767 km
Eccentricity
0.00332
Inclination
90.2501°
RAAN
9.038°
Arg. of periapsis
137.6636°
True anomaly
222.44813°
Mean anomaly
222.7054°
Eccentric anomaly
222.57668°
Mean motion
3.23504 °/min
Orbital period
111.28 mins
BSTAR
0.00014578
Loading maneuver chart data...
Computing Atmospheric mass density...
Loading historical data...
Loading historical data...
Loading historical data...
Loading historical data...
Loading historical data...
Loading historical data...
Loading historical data...

Documentation

Showing up to 5 results
|